Tracking 19212 objects as of 18-Jul-2018
HD Live streaming from Space Station
objects crossing your sky now

ITF-2

Track ITF-2 now!
10-day predictions
ITF-2 is classified as:


NORAD ID: 41932
Int'l Code: 1998-067KU
Perigee: 340.0 km
Apogee: 345.1 km
Inclination: 51.6 °
Period: 91.2 minutes
Semi major axis: 6713 km
RCS: Unknown
Launch date: November 20, 1998
Source: Japan (JPN)
Launch site: TYURATAM MISSILE AND SPACE COMPLEX (TTMTR)
Uplink (MHz):
Downlink (MHz): 437.525
Beacon (MHz): 437.525
Mode: 1200bps FM CW
Call sign: JQ1ZTK
Status: Active

aabbcc
Your satellite tracking list
Your tracking list is empty




NASA's NSSDC Master Catalog

Two Line Element Set (TLE):
1 41932U 98067KU  18198.33443858 +.00038000 +00000-0 +21936-3 0  9999
2 41932 051.6298 185.2455 0003812 353.5207 006.5744 15.78250197085522
Source of the keplerian elements: AFSPC